Location: Pcim
(49.7500°N, 19.9670°E)
Time: 21:11:15
(UTC+02:00)

MOZHAYETS 4 - Pass Details

Date: 27 April 2024
Orbit: 652 x 670 km, 98.3° (Epoch: 20 May)

Event Time Altitude Azimuth Distance (km) Brightness Sun altitude
Rises 02:22:09 0° 119° (ESE) 3,014 11.1 -22.3°
Reaches altitude 10° 02:24:58 10° 100° (E) 2,105 10.5 -22.1°
Maximum altitude 02:28:03 18° 58° (ENE) 1,634 10.4 -21.8°
Drops below altitude 10° 02:31:08 10° 16° (NNE) 2,112 11.4 -21.6°
Sets 02:33:57 0° 358° (N) 3,028 12.0 -21.4°
